#timestamp,LO_Frequency,Hit,StdDev 
1560697215.6,286047001.3,N
1560697235.5,286047004.4,N
1560697255.3,286047001.9,N
1560697275.1,286047001.5,N
1560697295.9,286047001.6,N
1560697315.7,286047002.4,N
1560697335.5,286047000.6,N
1560697355.4,286047001.1,N
1560697375.2,286046996.6,N
1560697395.0,286046999.1,N
1560697395.9,286046999.1,N
1560697415.8,286046999.4,N
1560697435.6,286046999.2,N
1560697455.4,286046999.2,N
1560697475.3,286046994.9,Y
1560697495.1,286046997.5,P
1560697515.8,286046995.1,P
1560697535.7,286046995.5,N
1560697555.5,286046997.9,N
1560697575.3,286046995.3,N
1560697595.2,286046997.7,N
1560697615.9,286046997.5,N
1560697635.7,286046997.1,N
1560697655.6,286046999.3,N
1560697675.4,286046999.5,N
1560697695.2,286046997.0,N
1560697715.1,286046999.6,N
1560697716.0,286046999.6,N
1560697735.8,286046996.7,N
1560697755.6,286046996.7,N
1560697775.5,286046996.7,N
1560697795.3,286046998.1,N
1560697815.1,286046997.1,N
1560697835.9,286046997.5,N
1560697855.7,286046995.5,Y
1560697875.5,286046996.5,P
1560697895.4,286046998.9,N
1560697915.2,286046999.3,N
1560697935.0,286047000.5,N
1560697935.9,286047000.5,N
1560697955.8,286047001.2,N
1560697975.6,286046998.7,N
1560697995.4,286047000.0,N
1560698015.3,286047000.5,N
1560698035.1,286047000.9,N
1560698036.0,286047000.9,N
1560698055.8,286046998.3,N
1560698075.7,286047000.9,N
1560698095.5,286047000.5,N
1560698115.3,286047000.5,N
1560698135.2,286046999.8,N
1560698155.9,286047001.0,N
1560698175.7,286047000.2,N
1560698195.6,286047000.2,N
1560698215.4,286047001.2,N
1560698235.2,286047000.9,N
1560698255.1,286046998.8,N
1560698256.0,286046998.8,N
1560698275.8,286046999.3,N
1560698295.6,286046999.4,N
1560698315.4,286046998.7,N
1560698335.3,286046999.1,N
1560698355.1,286046997.1,N
1560698375.8,286046996.7,N
1560698395.7,286046998.0,N
1560698415.5,286046997.0,N
1560698435.3,286046997.1,N
1560698455.2,286046997.8,N
1560698475.0,286046997.8,N
1560698475.9,286046997.8,N
1560698495.7,286046996.8,N
1560698515.6,286047000.7,N
1560698535.4,286046999.1,N
1560698555.2,286046999.0,N
1560698575.1,286046999.4,N
1560698576.0,286046999.4,N
1560698595.8,286046997.2,N
1560698615.7,286046994.9,Y
1560698635.5,286046994.9,P
1560698655.3,286046997.4,N
1560698675.1,286046997.6,N
1560698695.9,286046996.9,N
1560698715.7,286047000.5,N
1560698735.5,286046998.1,N
1560698755.4,286047000.7,N
1560698775.2,286046998.3,N
1560698795.0,286046999.5,N
1560698795.9,286046999.5,N
1560698815.8,286046998.6,N
1560698835.6,286046999.2,N
1560698855.4,286046998.7,N
1560698875.3,286046998.4,N
1560698895.1,286046998.6,N
1560698915.8,286046998.4,N
1560698935.7,286046999.4,N
1560698955.5,286047000.7,N
1560698975.3,286047000.7,N
1560698995.2,286047000.6,N
1560699015.0,286046999.8,N
1560699015.9,286046999.8,N
1560699035.7,286047002.7,N
1560699055.6,286047001.7,N
1560699075.4,286047002.5,N
1560699095.2,286047002.2,N
1560699115.1,286047001.8,N
1560699116.0,286047001.8,N
1560699135.8,286047001.7,N
1560699155.6,286047002.4,N
1560699175.5,286047002.8,N
1560699195.3,286046999.9,N
1560699215.1,286047001.1,N
1560699235.9,286047001.2,N
1560699255.7,286047001.0,N
1560699275.5,286047001.1,N
1560699295.4,286047001.1,N
1560699315.2,286047001.1,N
1560699335.0,286046998.5,N
1560699335.9,286046998.5,N
1560699355.8,286046998.1,N
1560699375.6,286046999.8,N
1560699395.4,286047000.2,N
1560699415.3,286047001.2,N
1560699435.1,286047000.8,N
1560699455.8,286046999.7,N
1560699475.7,286046998.1,N
1560699495.5,286046998.1,N
1560699515.3,286047001.1,N
1560699535.2,286047000.7,N
1560699555.0,286046998.4,N
1560699555.9,286046998.4,N
1560699575.8,286046998.2,N
1560699595.6,286046998.7,N
1560699615.4,286047000.7,N
1560699635.3,286046996.6,N
1560699655.1,286046997.2,N
1560699656.0,286046997.2,N
1560699675.8,286046996.9,N
1560699695.7,286046996.7,N
1560699715.5,286046997.5,N
1560699735.3,286046995.5,N
1560699755.2,286046997.9,N
1560699775.9,286046995.4,N
1560699795.7,286046997.3,N
1560699815.6,286046997.1,N
1560699835.4,286046999.6,N
1560699855.2,286046997.0,N
1560699875.1,286046998.5,N
1560699876.0,286046998.5,N
1560699895.8,286047000.5,N
1560699915.6,286047000.3,N
1560699935.5,286047001.1,N
1560699955.3,286047001.1,N
1560699975.1,286046997.1,N
1560699995.9,286046997.9,N
1560700015.7,286046995.6,N
1560700035.5,286046995.0,N
1560700055.4,286046996.8,N
1560700075.2,286046997.2,N
1560700095.0,286046997.5,N
1560700095.9,286046997.5,N
1560700115.8,286046995.9,N
1560700135.6,286046995.5,N
1560700155.4,286046995.6,N
1560700175.3,286046995.1,N
1560700195.1,286046996.3,N
1560700196.0,286046996.3,N
1560700215.8,286046996.1,N
1560700235.7,286046997.3,N
1560700255.5,286046997.0,N
1560700275.3,286046995.0,N
1560700295.2,286046997.4,N
1560700315.9,286046995.2,N
1560700335.7,286046993.8,Y
1560700355.6,286046999.6,P
1560700375.4,286046999.1,N
1560700395.2,286046999.3,N
1560700415.1,286046998.9,N
1560700416.0,286046998.9,N
1560700435.8,286047001.1,N
1560700455.6,286046998.8,N
1560700475.5,286046999.1,N
1560700495.3,286046999.4,N
1560700515.1,286046998.3,N
1560700535.9,286046999.3,N
1560700555.7,286046996.5,Y
1560700575.5,286046998.6,P
1560700595.4,286046998.5,P
1560700615.2,286046998.8,P
1560700635.0,286046999.3,Y
1560700635.9,286046999.3,P
1560700655.8,286047000.6,N
1560700675.6,286046999.7,N
1560700695.4,286047000.3,N
1560700715.3,286047002.7,Y
1560700735.1,286047002.4,P
1560700755.8,286046999.9,N
1560700775.7,286047002.3,N
1560700795.5,286047001.9,N
